National Oceanic Atmosphere Administration National Weather Service Headquarters National Weather Service Headquarters
NOAA logo WFO Anchorage Scalable transition graphic NWS logo
Transition from title bar to navgation bar   Aviation Weather 18 AKST 
blankspace Home   |   Mobile   |   Social Media   |   Mesonet   |   Surface Map   |   Radar   |   Submit Storm Reports   |   News =03 GMT 

LocalForecast by City, St or Zip Code

spacer

Forecasts/Products
  Public
  Forecast Discussion
    - With Glossary
  Aviation
  Marine
  Hydrology(RFC)
  Rivers & Lakes AHPS
  Ice Desk
  TV Weather
  Fire Weather
  Avalanche
  Travel 511
  Graphical
  xml logo RSS Feeds
  Marine FTPMail

spacer

Data
  Mesonet
  Model Graphics
  Local Model
  Observations
  Marine Obs
  Satellite/Radar
  Vent Factor
  Soaring Index
  Weather Links

spacer

Climate
  PAFC Climate
  Interactive Climate
  PAFC Records
  Local
  National
  More

spacer

Outreach
  About Us
  Community Outreach
  Kids' Page
  Tour/Speaker Request
  Weather Classroom
  Social Media

spacer

Reports
  COOP Observers
  Local Storm Reports
  Spotter Page
  Submit a Storm Report

spacer

Miscellaneous
  Archived Alaska Weather Stories
  Student Career Opportunities
  Research Papers

spacer

Print Friendly/
Low Bandwidth

  Public Forecasts
  Marine Forecasts

spacer

Contact Us
  mailto pafcweb

spacer

Facebook Follow the National Weather Service in Alaska on Twitter
USA.gov is the U.S. government's official web portal to all federal, state and local government web resources and services.


 ICAO ID:   AAWU Graphics

Internet access to TAFs and METAR observations is for planning purposes only. We can not guarantee the timeliness of internet products. Before flying please get a formal pilot briefing (1-800-992-7433) and ALWAYS file a Flight Plan!Pilot briefings are provided to licensed aircraft pilots, ONLY! Others may not use the above number to obtain weather information.

Check out the Key to TAFs and METARs for help with decoding the information.

A 12 hour summary of TAFs can be found here.

PANC TAF
PANC 302342Z 3100/0106  05005KT P6SM FEW060
     FM310300 36009KT P6SM SKC=


METAR PANC 310253Z 04004KT 10SM FEW015 SCT180 M09/M17 A3054 RMK AO2
 SLP347 T10891167 53007=
METAR PANC 310253Z 04004KT 10SM FEW015 SCT180 M09/M17 A3054=
METAR PANC 310153Z 06005KT 10SM FEW015 SCT180 M09/M16 A3053 RMK AO2
     SLP343 T10941156=
METAR PANC 310153Z 06005KT 10SM FEW015 SCT180 M09/M16 A3053=
METAR PANC 310053Z 05005KT 10SM FEW020 SCT180 M08/M16 A3053 RMK AO2
     SLP342 T10831156=
METAR PANC 310053Z 05005KT 10SM FEW020 SCT180 M08/M16 A3053=
METAR PANC 302353Z 36005KT 10SM FEW020 SCT060 SCT180 M07/M15 A3052
 RMK AO2 SLP339 4/007 T10671150 11067 21083 51010=
METAR PANC 302353Z 36005KT 10SM FEW020 SCT060 SCT180 M07/M15 A3052=


National Weather Service
Anchorage Forecast Office
6930 Sand Lake Road
Anchorage, Ak 99502
(907) 266-5105 M-F/7-5pm
About Us
Career Opportunities
Glossary
Disclaimer
Privacy Policy
Credits
Alaska Weather Information Line:
1-800-472-0391